• In Deutschland
  • Länderverzeichnis
  • Für 7 Tage
  • Wassertemperatur
  • Satellitenkarten
  • Wetterkarte
  • Widgets
  • user-avatar
    Anmelden

    Stündliche Wetter Kabul

    Heute, 11 Dezember, Montag

    Zeit Temperatur Niederschläge Wind Luftdruck Luftfeuchtigkeit
    00:00 +2°C° 0 mm 2 m/S 606 mmHg 19%
    01:00 +1°C° 0 mm 2 m/S 606 mmHg 20%
    02:00 +1°C° 0 mm 2 m/S 606 mmHg 21%
    03:00 +1°C° 0 mm 2 m/S 605 mmHg 22%
    04:00 -1°C° 0 mm 2 m/S 605 mmHg 24%
    05:00 -1°C° 0 mm 2 m/S 605 mmHg 30%
    06:00 -1°C° 0 mm 2 m/S 605 mmHg 31%
    07:00 -1°C° 0 mm 2 m/S 605 mmHg 33%
    08:00 -1°C° 0 mm 2 m/S 605 mmHg 34%
    09:00 +1°C° 0 mm 2 m/S 606 mmHg 32%
    10:00 +3°C° 0 mm 2 m/S 606 mmHg 31%
    11:00 +4°C° 0 mm 2 m/S 606 mmHg 31%
    12:00 +5°C° 0 mm 2 m/S 605 mmHg 31%
    13:00 +5°C° 0 mm 2 m/S 605 mmHg 32%
    14:00 +5°C° 0 mm 2 m/S 605 mmHg 32%
    15:00 +5°C° 0 mm 2 m/S 604 mmHg 34%
    16:00 +5°C° 0 mm 1 m/S 604 mmHg 36%
    17:00 +4°C° 0 mm 1 m/S 603 mmHg 46%
    18:00 +4°C° 0 mm 1 m/S 603 mmHg 48%
    19:00 +3°C° 0 mm 1 m/S 603 mmHg 51%
    20:00 +1°C° 0 mm 0 m/S 603 mmHg 54%
    21:00 +2°C° 0 mm 1 m/S 603 mmHg 54%
    22:00 +2°C° 0 mm 1 m/S 603 mmHg 54%
    23:00 +1°C° 0 mm 1 m/S 603 mmHg 54%

    Morgen, 12 Dezember, Dienstag

    Zeit Temperatur Niederschläge Wind Luftdruck Luftfeuchtigkeit
    00:00 +1°C° 0 mm 1 m/S 603 mmHg 53%
    01:00 -1°C° 0 mm 2 m/S 603 mmHg 53%
    02:00 -1°C° 0 mm 2 m/S 603 mmHg 52%
    03:00 -2°C° 0 mm 2 m/S 603 mmHg 51%
    04:00 -2°C° 0 mm 2 m/S 603 mmHg 50%
    05:00 -2°C° 0 mm 2 m/S 603 mmHg 50%
    06:00 -2°C° 0 mm 2 m/S 603 mmHg 49%
    07:00 -2°C° 0 mm 2 m/S 603 mmHg 49%
    08:00 -2°C° 0 mm 2 m/S 604 mmHg 48%
    09:00 -1°C° 0 mm 2 m/S 605 mmHg 42%
    10:00 +2°C° 0 mm 2 m/S 605 mmHg 37%
    11:00 +4°C° 0 mm 1 m/S 606 mmHg 31%
    12:00 +4°C° 0 mm 2 m/S 606 mmHg 30%
    13:00 +4°C° 0 mm 2 m/S 606 mmHg 29%
    14:00 +5°C° 0 mm 2 m/S 606 mmHg 28%
    15:00 +4°C° 0 mm 2 m/S 606 mmHg 30%
    16:00 +3°C° 0 mm 2 m/S 606 mmHg 31%
    17:00 +3°C° 0 mm 2 m/S 606 mmHg 33%
    18:00 +2°C° 0 mm 2 m/S 606 mmHg 36%
    19:00 +2°C° 0 mm 1 m/S 606 mmHg 39%
    20:00 +1°C° 0 mm 1 m/S 607 mmHg 42%
    21:00 +1°C° 0 mm 1 m/S 607 mmHg 44%
    22:00 0°C° 0 mm 1 m/S 607 mmHg 45%
    23:00 0°C° 0 mm 1 m/S 607 mmHg 47%

    übermorgen, 13 Dezember, Mittwoch

    Zeit Temperatur Niederschläge Wind Luftdruck Luftfeuchtigkeit
    00:00 -1°C° 0 mm 1 m/S 607 mmHg 47%
    01:00 -1°C° 0 mm 1 m/S 606 mmHg 48%
    02:00 -1°C° 0 mm 1 m/S 606 mmHg 48%
    03:00 -2°C° 0 mm 1 m/S 606 mmHg 47%
    04:00 -2°C° 0 mm 1 m/S 606 mmHg 46%
    05:00 -2°C° 0 mm 1 m/S 606 mmHg 45%
    06:00 -2°C° 0 mm 1 m/S 606 mmHg 42%
    07:00 -2°C° 0 mm 1 m/S 606 mmHg 40%
    08:00 -2°C° 0 mm 1 m/S 606 mmHg 37%
    09:00 -1°C° 0 mm 1 m/S 607 mmHg 34%
    10:00 0°C° 0 mm 1 m/S 607 mmHg 31%
    11:00 +1°C° 0 mm 1 m/S 608 mmHg 28%
    12:00 +1°C° 0 mm 2 m/S 607 mmHg 29%
    13:00 +1°C° 0 mm 2 m/S 607 mmHg 29%
    14:00 +2°C° 0 mm 2 m/S 606 mmHg 30%
    15:00 +1°C° 0 mm 2 m/S 606 mmHg 32%
    16:00 +1°C° 0 mm 2 m/S 606 mmHg 34%
    17:00 -1°C° 0 mm 2 m/S 606 mmHg 36%
    18:00 -2°C° 0 mm 2 m/S 606 mmHg 37%
    19:00 -2°C° 0 mm 2 m/S 606 mmHg 38%
    20:00 -1°C° 0 mm 1 m/S 606 mmHg 39%
    21:00 -1°C° 0 mm 1 m/S 606 mmHg 40%
    22:00 -2°C° 0 mm 1 m/S 606 mmHg 40%
    23:00 -2°C° 0 mm 1 m/S 606 mmHg 41%

    14 Dezember, Donnerstag

    Zeit Temperatur Niederschläge Wind Luftdruck Luftfeuchtigkeit
    00:00 -2°C° 0 mm 1 m/S 606 mmHg 43%
    01:00 -3°C° 0 mm 1 m/S 606 mmHg 45%
    02:00 -3°C° 0 mm 1 m/S 606 mmHg 46%
    03:00 -3°C° 0 mm 1 m/S 606 mmHg 49%
    04:00 -3°C° 0 mm 1 m/S 606 mmHg 51%
    05:00 -3°C° 0 mm 1 m/S 606 mmHg 53%
    06:00 -3°C° 0 mm 1 m/S 606 mmHg 54%
    07:00 -3°C° 0 mm 1 m/S 606 mmHg 55%
    08:00 -3°C° 0 mm 1 m/S 607 mmHg 56%
    09:00 -4°C° 0 mm 2 m/S 607 mmHg 54%
    10:00 -4°C° 0 mm 2 m/S 608 mmHg 52%
    11:00 -3°C° 0 mm 2 m/S 608 mmHg 50%
    12:00 -3°C° 0 mm 2 m/S 608 mmHg 49%
    13:00 -2°C° 0 mm 2 m/S 608 mmHg 48%
    14:00 -2°C° 0 mm 2 m/S 607 mmHg 47%
    15:00 -2°C° 0 mm 2 m/S 607 mmHg 49%
    16:00 -3°C° 0 mm 2 m/S 607 mmHg 50%
    17:00 -3°C° 0 mm 2 m/S 607 mmHg 52%
    18:00 -4°C° 0 mm 2 m/S 608 mmHg 52%
    19:00 -4°C° 0 mm 2 m/S 608 mmHg 53%
    20:00 -2°C° 0 mm 1 m/S 608 mmHg 53%
    21:00 -3°C° 0 mm 1 m/S 608 mmHg 54%
    22:00 -3°C° 0 mm 1 m/S 608 mmHg 54%
    23:00 -3°C° 0 mm 1 m/S 608 mmHg 55%

    15 Dezember, Freitag

    Zeit Temperatur Niederschläge Wind Luftdruck Luftfeuchtigkeit
    00:00 -4°C° 0 mm 1 m/S 608 mmHg 55%
    01:00 -4°C° 0 mm 1 m/S 608 mmHg 56%
    02:00 -4°C° 0 mm 1 m/S 607 mmHg 56%
    03:00 -6°C° 0 mm 1 m/S 607 mmHg 56%
    04:00 -6°C° 0 mm 1 m/S 607 mmHg 56%
    05:00 -6°C° 0 mm 1 m/S 607 mmHg 56%
    06:00 -6°C° 0 mm 1 m/S 608 mmHg 55%
    07:00 -6°C° 0 mm 1 m/S 608 mmHg 53%
    08:00 -6°C° 0 mm 1 m/S 609 mmHg 52%
    09:00 -3°C° 0 mm 1 m/S 609 mmHg 46%
    10:00 -2°C° 0 mm 1 m/S 610 mmHg 41%
    11:00 -1°C° 0 mm 1 m/S 610 mmHg 36%
    12:00 0°C° 0 mm 1 m/S 610 mmHg 34%
    13:00 -2°C° 0 mm 2 m/S 610 mmHg 32%
    14:00 -1°C° 0 mm 2 m/S 610 mmHg 31%
    15:00 -1°C° 0 mm 2 m/S 610 mmHg 32%
    16:00 -2°C° 0 mm 2 m/S 610 mmHg 33%
    17:00 -2°C° 0 mm 2 m/S 609 mmHg 35%
    18:00 -1°C° 0 mm 1 m/S 610 mmHg 36%
    19:00 -1°C° 0 mm 1 m/S 610 mmHg 37%
    20:00 -2°C° 0 mm 1 m/S 610 mmHg 38%
    21:00 -2°C° 0 mm 1 m/S 610 mmHg 38%
    22:00 -2°C° 0 mm 1 m/S 610 mmHg 38%
    23:00 -2°C° 0 mm 1 m/S 610 mmHg 38%

    16 Dezember, Samstag

    Zeit Temperatur Niederschläge Wind Luftdruck Luftfeuchtigkeit
    00:00 -3°C° 0 mm 1 m/S 610 mmHg 38%
    01:00 -3°C° 0 mm 1 m/S 610 mmHg 38%
    02:00 -3°C° 0 mm 1 m/S 609 mmHg 39%
    03:00 -3°C° 0 mm 1 m/S 609 mmHg 39%
    04:00 -3°C° 0 mm 1 m/S 609 mmHg 40%
    05:00 -3°C° 0 mm 1 m/S 609 mmHg 41%
    06:00 -3°C° 0 mm 1 m/S 609 mmHg 40%
    07:00 -2°C° 0 mm 1 m/S 609 mmHg 40%
    08:00 -2°C° 0 mm 1 m/S 610 mmHg 39%
    09:00 0°C° 0 mm 1 m/S 610 mmHg 35%
    10:00 +2°C° 0 mm 1 m/S 611 mmHg 31%
    11:00 +4°C° 0 mm 1 m/S 611 mmHg 27%
    12:00 +4°C° 0 mm 1 m/S 611 mmHg 27%
    13:00 +5°C° 0 mm 1 m/S 610 mmHg 27%
    14:00 +6°C° 0 mm 1 m/S 610 mmHg 26%
    15:00 +5°C° 0 mm 1 m/S 610 mmHg 28%
    16:00 +4°C° 0 mm 1 m/S 609 mmHg 31%
    17:00 +3°C° 0 mm 1 m/S 609 mmHg 33%
    18:00 +3°C° 0 mm 1 m/S 610 mmHg 34%
    19:00 +2°C° 0 mm 1 m/S 610 mmHg 35%
    20:00 +2°C° 0 mm 1 m/S 610 mmHg 36%
    21:00 +2°C° 0 mm 1 m/S 610 mmHg 37%
    22:00 +1°C° 0 mm 1 m/S 610 mmHg 37%
    23:00 +1°C° 0 mm 1 m/S 610 mmHg 38%
    Mehr zeigen